Location: Breckenridge
(39.4820°N, 106.0380°W)
Time: 13:59:04
(UTC-06:00)

Hubble Space Telescope - Pass Details

Date: 25 March 2019
Orbit: 537 x 540 km, 28.5° (Epoch: 22 April)

Event Time Altitude Azimuth Distance (km) Brightness Sun altitude
Rises 20:23:06 0° 222° (SW) 2,663 4.7 -12.7°
Reaches altitude 10° 20:26:30 10° 193° (SSW) 1,775 3.4 -13.3°
Maximum altitude 20:28:18 13° 166° (SSE) 1,616 2.9 -13.6°
Enters shadow 20:29:13 12° 152° (SSE) 1,660 2.9 -13.8°
